Regional Weather Roundup
Issued by NWS Charleston, SC

Current Version | Previous Version | Graphics & Text | Print | Product List | Glossary On
Versions: 1 2 3 4 5 6 7 8 9 10 11 12 13 14 15 16 17 18 19 20 21 22 23 24 25 26 27 28 29 30 31 32 33 34 35 36 37 38 39 40 41 42 43 44 45 46 47 48 49 50
398 ASUS42 KCHS 202339 RWRCHS REGIONAL WEATHER ROUNDUP NATIONAL WEATHER SERVICE CHARLESTON SC 700 PM EDT WED SEP 20 2017 NOTE: "FAIR" INDICATES FEW OR NO CLOUDS BELOW 12,000 FEET WITH NO SIGNIFICANT WEATHER AND/OR OBSTRUCTIONS TO VISIBILITY. NOT ALL STATIONS ARE QUALITY CONTROLLED. USE DATA WITH CAUTION... ESPECIALLY DEWPOINT OBSERVATIONS. SCZ027-030-031-034>040-042>050-210000- ...SOUTHEAST SOUTH CAROLINA... CITY SKY/WX TMP DP RH WIND PRES REMARKS N CHARLESTON PTCLDY 82 72 71 S9 29.97R WATERFRONT PRK N/A 83 74 74 S7 29.82R HX 90 JOHNS ISLAND FAIR 81 73 78 S7 29.98R PINOPOLIS N/A 88 72 58 CALM 29.90R HX 94 MONCKS CORNER FAIR 79 72 78 CALM 29.97S SUMMERVILLE FAIR 81 73 78 CALM 29.97S BEAUFORT MCAS PTCLDY 83 75 77 S6 29.97R HX 90 BEAUFORT ARPT FAIR 79 72 78 S6 29.98R HILTON HEAD IS CLEAR 81 73 78 S7 29.98S WALTERBORO CLEAR 81 73 78 CALM 29.98R ALLENDALE NOT AVBL ...SOUTHERN MIDLANDS AND PEE DEE... CITY SKY/WX TMP DP RH WIND PRES REMARKS GEORGETOWN FAIR 79 73 83 S3 29.98R KINGSTREE FAIR 81 70 69 CALM 29.96S ORANGEBURG CLEAR 86 66 51 CALM 29.96R BARNWELL FAIR 86 75 70 CALM 29.97R HX 95 AIKEN FAIR 81 68 65 CALM 30.01S MANNING FAIR 81 70 69 CALM 29.97R COLUMBIA PTCLDY 88 65 46 NE3 29.96R HX 90 SUMTER CLEAR 83 69 61 CALM 29.95R FLORENCE CLOUDY 82 71 69 W5 29.96S MYRTLE BEACH CLEAR 81 75 82 SW9 29.98R N MYRTLE BEACH CLEAR 81 75 82 S10 29.97R $$ GAZ063-065-086>088-099>101-113>116-118-119-134>141-150-210000- ...SOUTHEAST GEORGIA... CITY SKY/WX TMP DP RH WIND PRES REMARKS SAVANNAH ARPT MOCLDY 79 69 71 S7 29.98R HUNTER AAF PTCLDY 74 70 87 S7 29.96S FORT STEWART MOCLDY 79 71 77 E8 29.96R STATESBORO CLEAR 83 72 69 CALM 29.97S SYLVANIA CLEAR 83 76 78 CALM 29.99R HX 92 CLAXTON FAIR 81 77 86 CALM 29.97S ...CSRA...CENTRAL AND FAR SOUTHEAST GEORGIA... CITY SKY/WX TMP DP RH WIND PRES REMARKS THOMSON CLEAR 80 71 74 CALM 30.02S AUGUSTA-BUSH CLEAR 85 74 69 CALM 29.95S HX 92 AUGUSTA-DANIEL CLEAR 90 66 45 CALM 29.97S HX 92 SWAINSBORO FAIR 84 73 70 CALM 29.99R HX 91 VIDALIA PTCLDY 81 73 78 CALM 29.98R EASTMAN FAIR 80 64 59 CALM 30.01R HAZLEHURST FAIR 81 68 65 N3 29.97R ALMA CLOUDY 76 71 85 CALM 29.96F WAYCROSS MOCLDY 80 69 69 CALM 29.96F JESUP NOT AVBL BAXLEY MOCLDY 79 68 69 NW3 29.97S BRUNSWICK CLOUDY 82 70 65 SE7 29.98S SAINT SIMONS MOCLDY 83 72 69 SE9 29.98R $$ SCZ027-028-034-036>038-045-046-048>050-GAZ119-141-210000- ...LAKE AND SUPPLEMENTAL COASTAL OBSERVATIONS... STATION/POSITION TIME TEMP WIND PRES WAVE SWELL AIR SEA DIR/SP/G HT/PER HT/PER/DIR (UTC) (F) (DEG/KT/KT) (MB) (FT/S) (FT/S/D) WINYAH BAY 2245 82 190/ 10 1015.0S LAKE MURRAY 2320 83 90/ 1/ 2 1013.9 ACE BASIN NERRS 2245 82 150/ 3 1015.0S FORT PULASKI 2300 77 80 190/ 3/ 5 1015.3 SAPELO ISLAND 2300 82 CALM 1015.0 $$ ANZ835-935-AMZ111-154-330-350-352-354-370-450-454-472-210000- ...C-MAN AND BUOY OBSERVATIONS... STATION/POSITION TIME TEMP WIND PRES WAVE SWELL AIR SEA DIR/SP/G HT/PER HT/PER/DIR (UTC) (F) (DEG/KT/KT) (MB) (FT/S) (FT/S/D) BUOY 41004 2310 81 82 180/ 8/ 10 1014.8 BUOY 41008 2250 81 81 170/ 10/ 12 1015.1R 3/12 2/ 60/12 FOLLY BEACH CMAN 2300 81 180/ 9/ 10 1015.8R CAPERS NEARSHORE 2308 79 81 200/ 10/ 14 1014.8R FRIPP NEARSHORE 2308 80 180/ 10/ 14 1019.2F STATION/POSITION TIME TEMP WIND PRES WAVE SWELL AIR SEA DIR/SP/G HT/PER HT/PER/DIR (UTC) (F) (DEG/KT/KT) (MB) (FT/S) (FT/S/D) 5E ST. MARYS GA 2300 83 N/A 3/13 2/ 60/13 FRYING PAN BUOY 2310 81 82 210/ 8/ 10 1014.6 BUOY 41025 2250 77 75 240/ 4/ 6 1013.9R 4/10 3/ 60/10 CAPE LOOKOUT NC 2300 79 220/ 7/ 9 1014.0R BUOY 41002 2250 80 80 340/ 2/ 4 1015.7R 7/11 7/ 30/11 BUOY 41010 2310 85 60/ 8/ 12 1015.2 ST AUGUSTINE FL 2300 81 85 130/ 10/ 11 1015.8R $$

USA.gov is the U.S. government's official web portal to all federal, state and local government web resources and services.